Weather in Afanas'yevo

Russia / Kursk Oblast     51°10′26″N   36°17′40″E
temp.,
°C
wind,
m/s
gust,
m/s
humid.,
%
clouds,
%
prec.,
mm/h
press.,
hPa
HPBL,
m
8 march, mon
mon800:00−1wsw81492100 0.3 1007897
03:00−2wsw71394100 0.4 1006669
06:00−1wsw71296100 0.2 1005789
09:00−2wnw6996100 1.4 1006638
12:00−1wnw5783100 0.5 1007917
15:00−1wnw5778100 0.8 10071086
18:00−3wnw378895 0.3 1008225
21:00−6wnw348989 0.3 101094
9 march, tue
tue900:00−6wnw249266 0.0 1010116
03:00−7wnw369381 0.0 1011205
06:00−8nw4892100 0.0 1012291
09:00−9nw479397 0.1 1015298
12:00−7nw578799 0.1 1016579
15:00−7nnw5783100 0.1 1018831
18:00−8nnw4786100 0.1 1019755
21:00−10nw249375 0.1 1022138
10 march, wed
wed1000:00−11nw369066 0.0 1023210
03:00−13nw359458 0.0 1025152
06:00−14nnw34926 0.0 1026142
09:00−13nnw23893 0.0 1027192
12:00−10nw238279 0.0 1027429
15:00−8nw237789 0.0 1027624
18:00−8n1192100 0.1 1026159
21:00−10ene569399 0.3 1028287
11 march, thu
thu1100:00−14ene5893100 0.4 1029301
03:00−16ene4779100 0.5 1031251
06:00−18ene477859 0.0 1032209
09:00−16ene467531 0.0 1033221
12:00−12e35640 0.0 1033434
15:00−9ese34600 0.0 1032707
18:00−11ene34790 0.0 103286
21:00−13e35840 0.0 1033117
12 march, fri
fri1200:00−13se36840 0.0 1033124
03:00−12sse410790 0.0 1032209
06:00−12sse5117727 0.0 1031276
09:00−9s7136764 0.0 1029442
12:00−6s81362100 0.0 1027678
15:00−4s81359100 0.0 1026879
18:00−4s71458100 0.0 1023869
21:00−5s91769100 0.2 1023837